Location: Taukkyan
(23.1052°N, 94.0030°E)
Time: 11:51:33
(UTC+00:00)

Cosmos 1697 Rocket - Pass Details

Date: 06 July 2020
Orbit: 834 x 842 km, 71.0° (Epoch: 14 August)

Event Time Altitude Azimuth Distance (km) Brightness Sun altitude
Rises 21:20:30 0° 355° (N) 3,381 6.3 -21.2°
Reaches altitude 10° 21:23:11 10° 5° (N) 2,444 5.7 -20.7°
Maximum altitude 21:28:11 33° 68° (ENE) 1,369 4.4 -19.8°
Drops below altitude 10° 21:33:10 10° 131° (SE) 2,435 5.2 -18.9°
Sets 21:35:49 0° 141° (SE) 3,366 5.9 -18.4°
